EZY78UG EGKK-HEGN

Flight info

Callsign EZY78UG
Flight time N/A
Altitude 35000
Route ODVIK Y311 DVR UL9 KONAN DCT KOK DCT DIK M150 PITES DCT KRH DCT KUNOD DCT GEDSO DCT VEKEN DCT SEHOR DCT DARZA DCT GLOMY DCT PETAK DCT DIMIS UL604 IPTES/N0436F370 UL604 SALUN N705 MMA P751 DASUM Y234 FYM M872 BOPOB BOPOB1A
Aircraft A320/M-SDE3FGHIRWY/LB1

Departure

Time 2026-05-06 10:14
Airport London Gatwick Airport (EGKK)

Arrival

Time N/A
Airport Hurghada International Airport (HEGN)
Time Latitude Longitude Altitude Speed Heading
2026-05-06 09:33 51.15772 -0.17948 211 ft 0 kts 32°
2026-05-06 09:59 51.15770 -0.17950 0 ft 2 kts 32°
2026-05-06 10:00 51.15755 -0.17964 191 ft 2 kts 32°
2026-05-06 10:00 51.15741 -0.17981 143 ft 3 kts 56°
2026-05-06 10:00 51.15734 -0.18007 214 ft 3 kts 92°
2026-05-06 10:00 51.15738 -0.18034 213 ft 3 kts 128°
2026-05-06 10:01 51.15751 -0.18053 215 ft 3 kts 165°
2026-05-06 10:01 51.15768 -0.18059 214 ft 2 kts 168°
2026-05-06 10:01 51.15785 -0.18065 209 ft 2 kts 168°
2026-05-06 10:01 51.15802 -0.18070 214 ft 2 kts 168°
2026-05-06 10:02 51.15806 -0.18071 215 ft 0 kts 168°
2026-05-06 10:05 51.15781 -0.18063 207 ft 4 kts 167°
2026-05-06 10:05 51.15765 -0.18057 215 ft 3 kts 167°
2026-05-06 10:06 51.15740 -0.18048 212 ft 5 kts 166°
2026-05-06 10:06 51.15701 -0.18044 205 ft 8 kts 197°
2026-05-06 10:06 51.15678 -0.18123 210 ft 8 kts 259°
2026-05-06 10:06 51.15666 -0.18206 210 ft 7 kts 250°
2026-05-06 10:07 51.15633 -0.18244 214 ft 5 kts 191°
2026-05-06 10:07 51.15592 -0.18262 211 ft 7 kts 208°
2026-05-06 10:07 51.15554 -0.18305 211 ft 7 kts 214°
2026-05-06 10:07 51.15508 -0.18322 210 ft 7 kts 175°
2026-05-06 10:08 51.15445 -0.18300 211 ft 11 kts 167°
2026-05-06 10:08 51.15372 -0.18275 213 ft 10 kts 168°
2026-05-06 10:08 51.15295 -0.18249 211 ft 11 kts 168°
2026-05-06 10:08 51.15225 -0.18226 210 ft 9 kts 173°
2026-05-06 10:09 51.15186 -0.18286 211 ft 10 kts 264°
2026-05-06 10:09 51.15171 -0.18444 211 ft 19 kts 258°
2026-05-06 10:09 51.15138 -0.18685 208 ft 26 kts 257°
2026-05-06 10:09 51.15098 -0.18977 214 ft 28 kts 258°
2026-05-06 10:10 51.15054 -0.19296 210 ft 30 kts 258°
2026-05-06 10:10 51.15010 -0.19614 211 ft 30 kts 257°
2026-05-06 10:10 51.14966 -0.19933 209 ft 30 kts 257°
2026-05-06 10:10 51.14922 -0.20253 205 ft 29 kts 258°
2026-05-06 10:11 51.14878 -0.20568 207 ft 29 kts 257°
2026-05-06 10:11 51.14835 -0.20879 209 ft 28 kts 257°
2026-05-06 10:11 51.14798 -0.21127 215 ft 21 kts 254°
2026-05-06 10:11 51.14761 -0.21337 205 ft 11 kts 256°
2026-05-06 10:12 51.14720 -0.21409 214 ft 8 kts 189°
2026-05-06 10:12 51.14675 -0.21381 208 ft 6 kts 134°
2026-05-06 10:12 51.14647 -0.21340 211 ft 7 kts 158°
2026-05-06 10:12 51.14589 -0.21320 212 ft 8 kts 165°
2026-05-06 10:13 51.14532 -0.21256 205 ft 11 kts 126°
2026-05-06 10:13 51.14521 -0.21164 208 ft 7 kts 79°
2026-05-06 10:13 51.14572 -0.20805 212 ft 69 kts 78°
2026-05-06 10:13 51.14709 -0.19807 208 ft 125 kts 77°
2026-05-06 10:14 51.14935 -0.18177 234 ft 169 kts 75°
2026-05-06 10:14 51.15173 -0.16372 1012 ft 162 kts 73°
2026-05-06 10:14 51.15414 -0.14613 1741 ft 166 kts 73°
2026-05-06 10:14 51.15682 -0.12712 2025 ft 186 kts 74°
2026-05-06 10:15 51.15981 -0.10594 2282 ft 206 kts 74°
2026-05-06 10:15 51.16307 -0.08274 2594 ft 226 kts 73°
2026-05-06 10:15 51.16659 -0.05725 3000 ft 246 kts 74°
2026-05-06 10:15 51.16904 -0.02970 3686 ft 257 kts 87°
2026-05-06 10:16 51.16849 -0.00138 4495 ft 261 kts 88°
2026-05-06 10:16 51.16819 0.01306 4806 ft 266 kts 88°
2026-05-06 10:17 51.16802 0.03002 4732 ft 275 kts 84°
2026-05-06 10:17 51.16887 0.05968 4902 ft 257 kts 86°
2026-05-06 10:17 51.16838 0.08837 5342 ft 265 kts 89°
2026-05-06 10:18 51.16740 0.11812 6062 ft 272 kts 90°
2026-05-06 10:18 51.16636 0.14853 6828 ft 278 kts 90°
2026-05-06 10:18 51.16563 0.17941 7571 ft 281 kts 88°
2026-05-06 10:18 51.16557 0.21061 8328 ft 283 kts 83°
2026-05-06 10:19 51.16824 0.24173 9069 ft 284 kts 77°
2026-05-06 10:19 51.17192 0.27283 9814 ft 287 kts 77°
2026-05-06 10:19 51.17595 0.30448 10313 ft 300 kts 76°
2026-05-06 10:19 51.18042 0.33822 10472 ft 323 kts 76°
2026-05-06 10:20 51.18527 0.37425 10756 ft 339 kts 76°
2026-05-06 10:20 51.19031 0.41137 11335 ft 345 kts 76°
2026-05-06 10:20 51.19545 0.44886 11965 ft 348 kts 76°
2026-05-06 10:20 51.20072 0.48677 12597 ft 352 kts 76°
2026-05-06 10:21 51.20609 0.52511 13214 ft 356 kts 76°
2026-05-06 10:21 51.21154 0.56376 13486 ft 358 kts 77°
2026-05-06 10:21 51.21707 0.60267 13939 ft 361 kts 76°
2026-05-06 10:21 51.22269 0.64187 14501 ft 364 kts 76°
2026-05-06 10:22 51.22836 0.68138 15030 ft 367 kts 76°
2026-05-06 10:22 51.23409 0.72129 15573 ft 370 kts 76°
2026-05-06 10:22 51.23980 0.76110 16113 ft 373 kts 76°
2026-05-06 10:22 51.24570 0.80206 16438 ft 375 kts 77°
2026-05-06 10:23 51.25158 0.84281 16719 ft 377 kts 76°
2026-05-06 10:23 51.25741 0.88359 17059 ft 378 kts 78°
2026-05-06 10:23 51.25916 0.92544 17429 ft 381 kts 96°
2026-05-06 10:23 51.25291 0.96648 17807 ft 383 kts 109°
2026-05-06 10:24 51.24392 1.00670 17953 ft 385 kts 110°
2026-05-06 10:24 51.23487 1.04638 17970 ft 384 kts 110°
2026-05-06 10:24 51.22566 1.08637 17982 ft 385 kts 110°
2026-05-06 10:24 51.21626 1.12708 18440 ft 387 kts 110°
2026-05-06 10:25 51.20692 1.16746 18923 ft 389 kts 110°
2026-05-06 10:25 51.19753 1.20811 19394 ft 391 kts 110°
2026-05-06 10:25 51.18812 1.24887 19858 ft 393 kts 110°
2026-05-06 10:25 51.17865 1.28981 20304 ft 395 kts 110°
2026-05-06 10:26 51.16930 1.33046 20747 ft 397 kts 109°
2026-05-06 10:26 51.16248 1.37352 21181 ft 400 kts 99°
2026-05-06 10:26 51.15982 1.41780 21611 ft 402 kts 95°
2026-05-06 10:26 51.15776 1.46239 22056 ft 405 kts 95°
2026-05-06 10:27 51.15563 1.50716 22458 ft 407 kts 95°
2026-05-06 10:27 51.15345 1.55218 22866 ft 409 kts 95°
2026-05-06 10:27 51.15124 1.59736 23279 ft 411 kts 96°
2026-05-06 10:27 51.14898 1.64280 23649 ft 413 kts 96°
2026-05-06 10:28 51.14670 1.68849 23980 ft 415 kts 96°
2026-05-06 10:28 51.14440 1.73441 24311 ft 417 kts 96°
2026-05-06 10:28 51.14206 1.78045 24640 ft 418 kts 96°
2026-05-06 10:28 51.13972 1.82622 24967 ft 420 kts 96°
2026-05-06 10:29 51.13732 1.87262 25286 ft 422 kts 96°
2026-05-06 10:29 51.13490 1.91930 25606 ft 424 kts 96°
2026-05-06 10:29 51.13247 1.96613 25920 ft 425 kts 96°
2026-05-06 10:29 51.13003 2.01314 26236 ft 427 kts 96°
2026-05-06 10:30 51.12757 2.06032 26544 ft 429 kts 96°
2026-05-06 10:30 51.12506 2.10764 26849 ft 430 kts 97°
2026-05-06 10:30 51.12252 2.15525 27151 ft 432 kts 96°
2026-05-06 10:30 51.11997 2.20296 27452 ft 434 kts 97°
2026-05-06 10:31 51.11739 2.25092 27750 ft 435 kts 96°
2026-05-06 10:31 51.11479 2.29890 28042 ft 437 kts 97°
2026-05-06 10:31 51.11212 2.34714 28316 ft 438 kts 97°
2026-05-06 10:31 51.10938 2.39553 28591 ft 440 kts 97°
2026-05-06 10:32 51.10662 2.44411 28858 ft 442 kts 97°
2026-05-06 10:32 51.10385 2.49289 29113 ft 443 kts 97°
2026-05-06 10:32 51.10104 2.54178 29366 ft 445 kts 97°
2026-05-06 10:32 51.09818 2.59083 29607 ft 446 kts 98°
2026-05-06 10:33 51.09265 2.63934 29844 ft 445 kts 107°
2026-05-06 10:33 51.08270 2.68590 30065 ft 445 kts 115°
2026-05-06 10:33 51.06894 2.72979 30285 ft 444 kts 120°
2026-05-06 10:33 51.05446 2.77314 30583 ft 443 kts 120°
2026-05-06 10:34 51.04002 2.81637 30861 ft 443 kts 120°
2026-05-06 10:34 51.02557 2.85960 31128 ft 443 kts 120°
2026-05-06 10:34 51.01115 2.90276 31388 ft 443 kts 120°
2026-05-06 10:34 50.99674 2.94586 31649 ft 442 kts 120°
2026-05-06 10:35 50.98228 2.98906 31921 ft 442 kts 120°
2026-05-06 10:35 50.96786 3.03202 32187 ft 441 kts 120°
2026-05-06 10:35 50.95341 3.07505 32450 ft 441 kts 120°
2026-05-06 10:35 50.93897 3.11798 32723 ft 441 kts 120°
2026-05-06 10:36 50.92455 3.16075 32995 ft 440 kts 120°
2026-05-06 10:36 50.91012 3.20348 33272 ft 439 kts 120°
2026-05-06 10:36 50.89571 3.24605 33523 ft 439 kts 120°
2026-05-06 10:36 50.88126 3.28862 33820 ft 438 kts 121°
2026-05-06 10:37 50.86687 3.33093 34068 ft 437 kts 121°
2026-05-06 10:37 50.85241 3.37335 34275 ft 437 kts 121°
2026-05-06 10:37 50.83800 3.41566 34468 ft 437 kts 121°
2026-05-06 10:37 50.82359 3.45800 34655 ft 437 kts 121°
2026-05-06 10:38 50.80914 3.50037 34823 ft 438 kts 121°
2026-05-06 10:38 50.79467 3.54265 34882 ft 437 kts 121°
2026-05-06 10:38 50.76575 3.62687 34888 ft 435 kts 121°
2026-05-06 10:39 50.73685 3.71072 34886 ft 435 kts 121°
2026-05-06 10:39 50.70789 3.79444 34888 ft 434 kts 122°
2026-05-06 10:40 50.67888 3.87795 34882 ft 434 kts 122°
2026-05-06 10:40 50.64986 3.96141 34872 ft 434 kts 122°
2026-05-06 10:41 50.62082 4.04477 34868 ft 434 kts 122°
2026-05-06 10:41 50.59165 4.12803 34877 ft 434 kts 122°
2026-05-06 10:42 50.56244 4.21108 34874 ft 434 kts 122°
2026-05-06 10:42 50.53320 4.29403 34880 ft 434 kts 122°
2026-05-06 10:43 50.50389 4.37695 34880 ft 434 kts 123°
2026-05-06 10:44 50.45977 4.50110 34886 ft 434 kts 123°
2026-05-06 10:44 50.43026 4.58381 34888 ft 434 kts 123°
2026-05-06 10:45 50.40072 4.66632 34884 ft 434 kts 123°
2026-05-06 10:45 50.37113 4.74879 34878 ft 434 kts 123°
2026-05-06 10:46 50.34151 4.83120 34868 ft 434 kts 123°
2026-05-06 10:46 50.31691 4.89954 34860 ft 433 kts 123°
2026-05-06 10:47 50.28723 4.98158 34854 ft 433 kts 123°
2026-05-06 10:47 50.25745 5.06327 34846 ft 432 kts 124°
2026-05-06 10:48 50.22763 5.14482 34844 ft 432 kts 124°
2026-05-06 10:48 50.19789 5.22634 34840 ft 432 kts 124°
2026-05-06 10:49 50.16812 5.30768 34837 ft 432 kts 124°
2026-05-06 10:49 50.13826 5.38888 34829 ft 431 kts 124°
2026-05-06 10:50 50.10837 5.46981 34822 ft 431 kts 124°
2026-05-06 10:50 50.07839 5.55078 34833 ft 432 kts 124°
2026-05-06 10:51 50.04835 5.63174 34828 ft 432 kts 124°
2026-05-06 10:51 50.01831 5.71254 34816 ft 431 kts 125°
2026-05-06 10:52 49.98817 5.79315 34811 ft 431 kts 125°
2026-05-06 10:52 49.95794 5.87359 34809 ft 431 kts 125°
2026-05-06 10:53 49.92772 5.95379 34795 ft 431 kts 125°
2026-05-06 10:53 49.89749 6.03405 34787 ft 430 kts 125°
2026-05-06 10:54 49.86725 6.11408 34788 ft 430 kts 125°
2026-05-06 10:54 49.83789 6.19512 34778 ft 431 kts 123°
2026-05-06 10:55 49.81035 6.27773 34781 ft 432 kts 122°
2026-05-06 10:55 49.78287 6.36045 34776 ft 432 kts 122°
2026-05-06 10:56 49.75493 6.44263 34776 ft 431 kts 123°
2026-05-06 10:56 49.72675 6.52447 34765 ft 431 kts 123°
2026-05-06 10:57 49.69859 6.60629 34764 ft 431 kts 123°
2026-05-06 10:57 49.67059 6.68813 34745 ft 431 kts 123°
2026-05-06 10:58 49.64247 6.76978 34750 ft 431 kts 123°
2026-05-06 10:58 49.61428 6.85121 34751 ft 430 kts 124°
2026-05-06 10:59 49.58601 6.93252 34763 ft 430 kts 124°
2026-05-06 10:59 49.55781 7.01376 34764 ft 430 kts 124°
2026-05-06 11:00 49.52956 7.09475 34779 ft 429 kts 124°
2026-05-06 11:00 49.50123 7.17548 34776 ft 429 kts 124°
2026-05-06 11:01 49.47281 7.25603 34774 ft 428 kts 124°
2026-05-06 11:01 49.44435 7.33656 34772 ft 429 kts 124°
2026-05-06 11:02 49.41590 7.41700 34779 ft 428 kts 124°
2026-05-06 11:02 49.38742 7.49726 34791 ft 428 kts 124°
2026-05-06 11:03 49.35889 7.57754 34784 ft 428 kts 124°
2026-05-06 11:03 49.33028 7.65778 34784 ft 428 kts 124°
2026-05-06 11:04 49.30156 7.73782 34778 ft 429 kts 124°
2026-05-06 11:04 49.27279 7.81784 34775 ft 429 kts 124°
2026-05-06 11:05 49.24407 7.89771 34776 ft 429 kts 124°
2026-05-06 11:05 49.21518 7.97778 34776 ft 429 kts 124°
2026-05-06 11:06 49.18625 8.05739 34779 ft 429 kts 125°
2026-05-06 11:06 49.15716 8.13714 34785 ft 429 kts 125°
2026-05-06 11:07 49.12827 8.21641 34786 ft 429 kts 125°
2026-05-06 11:07 49.09917 8.29604 34789 ft 430 kts 125°
2026-05-06 11:08 49.06992 8.37568 34785 ft 430 kts 125°
2026-05-06 11:08 49.04064 8.45524 34792 ft 430 kts 125°
2026-05-06 11:09 49.01126 8.53478 34789 ft 431 kts 125°
2026-05-06 11:09 48.97765 8.60900 34796 ft 421 kts 139°
2026-05-06 11:10 48.93727 8.67347 34791 ft 421 kts 139°
2026-05-06 11:10 48.89704 8.73814 34800 ft 422 kts 139°
2026-05-06 11:11 48.85673 8.80290 34797 ft 422 kts 139°
2026-05-06 11:11 48.81626 8.86764 34803 ft 422 kts 139°
2026-05-06 11:12 48.77577 8.93224 34805 ft 422 kts 139°
2026-05-06 11:12 48.73533 8.99656 34816 ft 422 kts 139°
2026-05-06 11:13 48.69506 9.06037 34815 ft 422 kts 139°
2026-05-06 11:13 48.65962 9.11644 34822 ft 421 kts 139°
2026-05-06 11:14 48.61936 9.17997 34824 ft 421 kts 139°
2026-05-06 11:14 48.57884 9.24382 34820 ft 421 kts 139°
2026-05-06 11:15 48.53825 9.30750 34819 ft 421 kts 139°
2026-05-06 11:15 48.49768 9.37100 34817 ft 420 kts 139°
2026-05-06 11:16 48.45704 9.43449 34811 ft 421 kts 139°
2026-05-06 11:16 48.41637 9.49786 34812 ft 421 kts 139°
2026-05-06 11:17 48.37571 9.56120 34809 ft 421 kts 139°
2026-05-06 11:17 48.33534 9.62496 34810 ft 424 kts 134°
2026-05-06 11:18 48.29826 9.69408 34802 ft 425 kts 134°
2026-05-06 11:18 48.28574 9.71742 34804 ft 425 kts 134°
2026-05-06 11:19 48.25389 9.77668 34798 ft 425 kts 134°
2026-05-06 11:19 48.21663 9.84564 34799 ft 426 kts 134°
2026-05-06 11:20 48.17925 9.91459 34795 ft 427 kts 134°
2026-05-06 11:20 48.14182 9.98357 34797 ft 427 kts 134°
2026-05-06 11:21 48.10426 10.05264 34790 ft 427 kts 134°
2026-05-06 11:21 48.06666 10.12166 34791 ft 428 kts 134°
2026-05-06 11:22 48.02898 10.19064 34790 ft 429 kts 134°
2026-05-06 11:22 47.99124 10.25962 34788 ft 429 kts 135°
2026-05-06 11:23 47.95338 10.32863 34787 ft 430 kts 135°
2026-05-06 11:23 47.91534 10.39758 34790 ft 430 kts 135°
2026-05-06 11:24 47.87722 10.46649 34789 ft 431 kts 135°
2026-05-06 11:24 47.84493 10.52476 34793 ft 431 kts 135°
2026-05-06 11:25 47.80674 10.59357 34812 ft 432 kts 135°
2026-05-06 11:25 47.76843 10.66249 34816 ft 432 kts 135°
2026-05-06 11:26 47.73007 10.73123 34815 ft 433 kts 135°
2026-05-06 11:26 47.69165 10.79992 34812 ft 432 kts 135°
2026-05-06 11:27 47.65328 10.86849 34799 ft 432 kts 135°
2026-05-06 11:27 47.62134 10.92533 34790 ft 432 kts 136°
2026-05-06 11:28 47.58283 10.99365 34777 ft 432 kts 136°
2026-05-06 11:28 47.54425 11.06191 34764 ft 432 kts 136°
2026-05-06 11:29 47.50562 11.13022 34759 ft 433 kts 136°
2026-05-06 11:29 47.46698 11.19852 34756 ft 433 kts 136°
2026-05-06 11:30 47.42820 11.26667 34754 ft 433 kts 136°
2026-05-06 11:30 47.38929 11.33478 34760 ft 434 kts 136°
2026-05-06 11:31 47.35035 11.40292 34749 ft 434 kts 135°
2026-05-06 11:31 47.31129 11.47100 34758 ft 435 kts 136°
2026-05-06 11:32 47.27215 11.53920 34757 ft 436 kts 136°
2026-05-06 11:32 47.23296 11.60737 34760 ft 436 kts 136°
2026-05-06 11:33 47.19364 11.67550 34774 ft 437 kts 136°
2026-05-06 11:33 47.15417 11.74368 34794 ft 438 kts 137°
2026-05-06 11:34 47.11459 11.81171 34810 ft 438 kts 137°
2026-05-06 11:34 47.07699 11.88270 34813 ft 447 kts 126°
2026-05-06 11:35 47.04907 11.96493 34816 ft 452 kts 122°
2026-05-06 11:35 47.02143 12.04774 34832 ft 452 kts 122°
2026-05-06 11:36 46.99377 12.12998 34854 ft 453 kts 122°
2026-05-06 11:36 46.96584 12.21274 34876 ft 454 kts 122°
2026-05-06 11:37 46.93789 12.29556 34884 ft 454 kts 122°
2026-05-06 11:37 46.90986 12.37844 34928 ft 455 kts 124°
2026-05-06 11:38 46.88159 12.46157 34895 ft 458 kts 124°
2026-05-06 11:38 46.85315 12.54506 34885 ft 459 kts 124°
2026-05-06 11:39 46.82448 12.62857 34885 ft 460 kts 124°
2026-05-06 11:39 46.79588 12.71171 34888 ft 462 kts 124°
2026-05-06 11:40 46.76719 12.79540 34886 ft 461 kts 124°
2026-05-06 11:40 46.73833 12.87912 34907 ft 462 kts 124°
2026-05-06 11:41 46.70932 12.96293 34905 ft 464 kts 124°
2026-05-06 11:41 46.68015 13.04678 34903 ft 464 kts 124°
2026-05-06 11:42 46.65099 13.13058 34908 ft 464 kts 124°
2026-05-06 11:42 46.62175 13.21436 34903 ft 464 kts 124°
2026-05-06 11:43 46.59231 13.29813 34909 ft 464 kts 124°
2026-05-06 11:43 46.56085 13.37951 34911 ft 456 kts 134°
2026-05-06 11:44 46.49758 13.47990 34911 ft 448 kts 141°
2026-05-06 11:44 46.45437 13.54538 34913 ft 449 kts 141°
2026-05-06 11:45 46.41109 13.61093 34924 ft 450 kts 141°
2026-05-06 11:45 46.36780 13.67634 34921 ft 449 kts 141°
2026-05-06 11:46 46.32445 13.74163 34939 ft 450 kts 141°
2026-05-06 11:46 46.28099 13.80699 34960 ft 450 kts 141°
2026-05-06 11:47 46.23784 13.87164 34954 ft 449 kts 141°
2026-05-06 11:47 46.19443 13.93650 34950 ft 449 kts 141°
2026-05-06 11:48 46.15108 14.00113 34953 ft 448 kts 141°
2026-05-06 11:48 46.10770 14.06565 34948 ft 447 kts 141°
2026-05-06 11:49 46.06446 14.12992 34945 ft 447 kts 141°
2026-05-06 11:49 46.02114 14.19403 34951 ft 447 kts 141°
2026-05-06 11:50 45.97778 14.25800 34949 ft 446 kts 141°
2026-05-06 11:50 45.93445 14.32190 34953 ft 447 kts 141°
2026-05-06 11:51 45.89209 14.38737 34954 ft 448 kts 139°
2026-05-06 11:51 45.85044 14.45405 34955 ft 449 kts 139°
2026-05-06 11:52 45.80863 14.52053 34956 ft 448 kts 139°
2026-05-06 11:52 45.76657 14.58622 34952 ft 447 kts 139°
2026-05-06 11:53 45.72443 14.65173 34947 ft 447 kts 139°
2026-05-06 11:53 45.68225 14.71735 34952 ft 447 kts 139°
2026-05-06 11:54 45.64012 14.78285 34953 ft 448 kts 139°
2026-05-06 11:54 45.60029 14.84457 34956 ft 447 kts 139°
2026-05-06 11:55 45.55925 14.90807 34951 ft 447 kts 139°
2026-05-06 11:55 45.51699 14.97322 34955 ft 447 kts 139°
2026-05-06 11:56 45.47448 15.03781 34954 ft 446 kts 140°
2026-05-06 11:56 45.43095 15.10050 34948 ft 444 kts 141°
2026-05-06 11:57 45.38711 15.16250 34948 ft 445 kts 141°
2026-05-06 11:57 45.34360 15.22431 34949 ft 445 kts 141°
2026-05-06 11:58 45.29997 15.28670 34941 ft 445 kts 141°
2026-05-06 11:58 45.25636 15.34907 34941 ft 445 kts 141°
2026-05-06 11:59 45.21270 15.41139 34940 ft 445 kts 141°
2026-05-06 11:59 45.16889 15.47361 34941 ft 445 kts 141°
2026-05-06 12:00 45.12509 15.53556 34935 ft 445 kts 141°
2026-05-06 12:00 45.08118 15.59757 34933 ft 445 kts 141°
2026-05-06 12:01 45.03728 15.65948 34932 ft 446 kts 141°
2026-05-06 12:01 44.99327 15.72142 34935 ft 446 kts 141°
2026-05-06 12:02 44.94919 15.78322 34948 ft 447 kts 141°
2026-05-06 12:02 44.90500 15.84502 34947 ft 447 kts 141°
2026-05-06 12:03 44.86076 15.90676 34947 ft 448 kts 141°
2026-05-06 12:03 44.81647 15.96845 34951 ft 448 kts 141°
2026-05-06 12:04 44.77211 16.03017 34951 ft 448 kts 141°
2026-05-06 12:04 44.72781 16.09167 34950 ft 448 kts 141°
2026-05-06 12:05 44.68342 16.15312 34952 ft 448 kts 141°
2026-05-06 12:05 44.63903 16.21456 34949 ft 448 kts 141°
2026-05-06 12:06 44.59455 16.27588 34953 ft 448 kts 141°
2026-05-06 12:06 44.55005 16.33702 34953 ft 448 kts 141°
2026-05-06 12:07 44.50552 16.39801 34961 ft 447 kts 141°
2026-05-06 12:07 44.46100 16.45890 34963 ft 447 kts 140°
2026-05-06 12:08 44.41649 16.51970 34965 ft 447 kts 140°
2026-05-06 12:08 44.37225 16.57998 34970 ft 447 kts 140°
2026-05-06 12:09 44.32772 16.64061 34975 ft 447 kts 140°
2026-05-06 12:09 44.28319 16.70113 34976 ft 447 kts 140°
2026-05-06 12:10 44.23856 16.76146 34986 ft 447 kts 140°
2026-05-06 12:10 44.20117 16.81187 34991 ft 446 kts 140°
2026-05-06 12:11 44.15655 16.87193 34993 ft 446 kts 140°
2026-05-06 12:11 44.11196 16.93190 34997 ft 446 kts 140°
2026-05-06 12:12 44.06727 16.99184 35004 ft 446 kts 140°
2026-05-06 12:12 44.02258 17.05175 35005 ft 446 kts 140°
2026-05-06 12:13 43.97796 17.11165 35010 ft 446 kts 140°
2026-05-06 12:13 43.93321 17.17125 35015 ft 446 kts 140°
2026-05-06 12:14 43.88834 17.23063 35014 ft 446 kts 140°
2026-05-06 12:14 43.84355 17.29007 35016 ft 446 kts 139°
2026-05-06 12:15 43.79881 17.34947 35023 ft 446 kts 139°
2026-05-06 12:15 43.75389 17.40871 35025 ft 446 kts 140°
2026-05-06 12:16 43.70901 17.46786 35027 ft 446 kts 139°
2026-05-06 12:16 43.66414 17.52707 35030 ft 446 kts 140°
2026-05-06 12:17 43.61944 17.58581 35034 ft 446 kts 140°
2026-05-06 12:17 43.57436 17.64472 35041 ft 447 kts 140°
2026-05-06 12:18 43.52520 17.69690 35040 ft 443 kts 148°
2026-05-06 12:18 43.47492 17.74497 35041 ft 443 kts 148°
2026-05-06 12:19 43.42426 17.79330 35040 ft 443 kts 149°
2026-05-06 12:19 43.37349 17.84163 35037 ft 444 kts 149°
2026-05-06 12:20 43.32266 17.89001 35039 ft 444 kts 149°
2026-05-06 12:20 43.27178 17.93827 35038 ft 445 kts 149°
2026-05-06 12:21 43.22081 17.98636 35039 ft 445 kts 149°
2026-05-06 12:21 43.16971 18.03449 35045 ft 446 kts 149°
2026-05-06 12:22 43.11864 18.08253 35057 ft 446 kts 149°
2026-05-06 12:22 43.06754 18.13060 35058 ft 445 kts 149°
2026-05-06 12:23 43.01643 18.17867 35070 ft 446 kts 149°
2026-05-06 12:23 42.96533 18.22654 35069 ft 446 kts 149°
2026-05-06 12:24 42.91416 18.27431 35067 ft 446 kts 149°
2026-05-06 12:24 42.86298 18.32204 35071 ft 446 kts 149°
2026-05-06 12:25 42.81176 18.36973 35077 ft 445 kts 149°
2026-05-06 12:25 42.76057 18.41723 35078 ft 445 kts 149°
2026-05-06 12:26 42.70930 18.46478 35085 ft 446 kts 149°
2026-05-06 12:26 42.65802 18.51218 35082 ft 446 kts 150°
2026-05-06 12:27 42.60669 18.55952 35080 ft 446 kts 149°
2026-05-06 12:27 42.55532 18.60691 35088 ft 446 kts 149°
2026-05-06 12:28 42.50391 18.65411 35091 ft 447 kts 150°
2026-05-06 12:28 42.45241 18.70134 35095 ft 447 kts 149°
2026-05-06 12:29 42.40082 18.74852 35097 ft 448 kts 149°
2026-05-06 12:29 42.34957 18.79544 35100 ft 448 kts 150°
2026-05-06 12:30 42.29760 18.84282 35099 ft 448 kts 150°
2026-05-06 12:30 42.24591 18.88986 35092 ft 448 kts 150°
2026-05-06 12:31 42.19421 18.93676 35094 ft 448 kts 150°
2026-05-06 12:31 42.14249 18.98367 35083 ft 448 kts 150°
2026-05-06 12:32 42.09075 19.03051 35082 ft 448 kts 150°
2026-05-06 12:32 42.03896 19.07720 35083 ft 448 kts 150°
2026-05-06 12:33 41.98712 19.12398 35080 ft 449 kts 150°
2026-05-06 12:33 41.93523 19.17068 35083 ft 449 kts 150°
2026-05-06 12:34 41.88334 19.21721 35088 ft 449 kts 150°
2026-05-06 12:34 41.83130 19.26372 35086 ft 450 kts 150°